Terminal Aerodrome Forecast
Issued by NWS

Home | Current Version | Previous Version | Text Only | Print | Product List | Glossary On
Versions: 1 2 3 4 5 6 7 8 9 10 11 12 13 14 15 16 17 18 19
000
FTUS43 KDLH 281143
TAFBRD
TAF
KBRD 281143Z 2812/2912 00000KT 2SM BR OVC005
      TEMPO 2812/2813 1/2SM FG OVC002
     FM281400 16004KT 4SM BR BKN008
     FM281500 16007KT P6SM SCT015
     FM281800 16010G16KT P6SM BKN040
     FM290000 17008KT P6SM VCTS BKN040CB=

USA.gov is the U.S. government's official web portal to all federal, state and local government web resources and services.